Location: Sevilla
(37.3933°N, 5.9839°W)
Time: 04:21:43
(UTC+02:00)

Transit 2A - Pass Details

Date: 01 July 2024
Orbit: 591 x 960 km, 66.7° (Epoch: 13 July)

Event Time Altitude Azimuth Distance (km) Brightness Sun altitude
Rises 15:23:20 0° 218° (SW) 3,008 9.3 71.4°
Reaches altitude 10° 15:25:35 10° 223° (SW) 2,147 8.8 71.1°
Maximum altitude 15:30:23 56° 302° (WNW) 892 7.5 70.4°
Drops below altitude 10° 15:35:46 10° 20° (NNE) 2,403 8.5 69.6°
Sets 15:38:25 0° 25° (NNE) 3,400 9.2 69.2°
